FW2362 Weather Reports


time (UTC)temp
C
wind
direction
speed
KPH
gust
KPH
rain 1hr
cm
rain 24hr
cm
rain mn
cm
humidity
%
barometer
mb
20260505181535 20 298 22.5 38.6 0.00 0.00 0.00 55 1014.4
20260505180036 18 294 24.1 43.5 0.00 0.00 0.00 57 1014.5
20260505173034 18 298 25.7 43.5 0.00 0.00 0.00 58 1014.5
20260505171534 18 297 22.5 45.1 0.00 0.00 0.00 60 1014.5
20260505170032 18 300 24.1 41.8 0.00 0.00 0.00 61 1014.5
20260505164535 17 295 24.1 41.8 0.00 0.00 0.00 62 1014.5
20260505163034 17 300 24.1 40.2 0.00 0.00 0.00 64 1014.5
20260505161531 17 299 24.1 40.2 0.00 0.00 0.00 65 1014.5
20260505153034 16 294 24.1 45.1 0.00 0.00 0.00 68 1014.2
20260505151533 16 296 22.5 40.2 0.00 0.00 0.00 69 1014.2
20260505124535 15 290 25.7 51.5 0.00 0.00 0.00 71 1012.5
20260505121534 15 291 25.7 54.7 0.00 0.00 0.00 70 1012.4
20260505120035 15 295 27.4 48.3 0.00 0.00 0.00 70 1012.3
20260505114534 16 288 24.1 46.7 0.00 0.00 0.00 70 1012.3
20260505113107 16 290 24.1 48.3 0.00 0.00 0.00 71 1012.2
20260505111607 16 287 25.7 49.9 0.00 0.00 0.00 70 1012.0
20260505101536 17 289 24.1 49.9 0.00 0.00 0.00 68 1011.3
20260505100108 17 289 25.7 51.5 0.00 0.00 0.00 67 1011.3
20260505094536 17 291 24.1 45.1 0.00 0.00 0.00 67 1011.2
20260505093042 17 290 24.1 45.1 0.00 0.00 0.00 66 1011.2
20260505093036 17 289 24.1 40.2 0.00 0.00 0.00 66 1011.2
20260505090036 18 287 19.3 45.1 0.00 0.00 0.00 66 1011.2
20260505083035 18 286 20.9 38.6 0.00 0.00 0.00 66 1011.1
20260505081536 18 288 20.9 46.7 0.00 0.00 0.00 66 1011.0
20260505080110 18 287 20.9 45.1 0.00 0.00 0.00 66 1010.9
20260505073032 18 282 17.7 40.2 0.00 0.00 0.00 67 1010.8
20260505070037 19 277 14.5 29.0 0.00 0.00 0.00 65 1010.7
20260505063033 20 273 16.1 30.6 0.00 0.00 0.00 63 1010.5
20260505061534 20 271 12.9 33.8 0.00 0.00 0.00 61 1010.4
20260505060036 20 269 16.1 33.8 0.00 0.00 0.00 60 1010.3
20260505054535 20 277 16.1 37.0 0.00 0.00 0.00 59 1010.2
20260505053034 20 283 16.1 33.8 0.00 0.00 0.00 57 1010.1
20260505051538 20 282 14.5 37.0 0.00 0.00 0.00 56 1010.0
20260505041535 21 266 14.5 38.6 0.00 0.00 0.00 51 1009.3
20260505040050 22 271 14.5 37.0 0.00 0.00 0.00 51 1009.0
20260505033035 22 274 16.1 35.4 0.00 0.00 0.00 50 1008.6
20260505031535 22 269 14.5 37.0 0.00 0.00 0.00 49 1008.5
20260505024536 23 273 14.5 27.4 0.00 0.00 0.00 47 1008.1
20260505023152 23 281 14.5 37.0 0.00 0.00 0.00 47 1008.1
20260505021535 24 281 16.1 37.0 0.00 0.00 0.00 46 1008.1
20260505014534 25 289 20.9 40.2 0.00 0.00 0.00 44 1007.9
20260505013032 25 288 19.3 35.4 0.00 0.00 0.00 44 1007.9
20260505011536 25 289 17.7 35.4 0.00 0.00 0.00 43 1007.8
20260505010037 26 293 22.5 41.8 0.00 0.00 0.00 42 1007.7
20260505004535 26 296 20.9 40.2 0.00 0.00 0.00 42 1007.7
20260505000035 26 299 20.9 37.0 0.00 0.00 0.00 40 1007.9
20260504234532 27 297 19.3 37.0 0.00 0.00 0.00 40 1007.9
20260504233036 27 301 19.3 45.1 0.00 0.00 0.00 40 1008.0
20260504231535 27 300 22.5 40.2 0.00 0.00 0.00 40 1008.0
20260504230030 27 302 22.5 38.6 0.00 0.00 0.00 40 1008.2
20260504224533 27 301 24.1 40.2 0.00 0.00 0.00 39 1008.3
20260504223035 27 299 22.5 37.0 0.00 0.00 0.00 39 1008.6
20260504220034 27 298 19.3 35.4 0.00 0.00 0.00 39 1008.9
20260504214611 27 297 19.3 35.4 0.00 0.00 0.00 39 1008.9
20260504213035 27 298 17.7 32.2 0.00 0.00 0.00 39 1009.2
20260504210030 27 300 17.7 30.6 0.00 0.00 0.00 39 1009.4
20260504204532 26 298 16.1 30.6 0.00 0.00 0.00 39 1009.5
20260504203032 26 296 17.7 32.2 0.00 0.00 0.00 39 1009.7
20260504201610 26 297 17.7 33.8 0.00 0.00 0.00 39 1009.8
20260504194535 26 299 19.3 32.2 0.00 0.00 0.00 40 1010.0
20260504193037 25 293 17.7 35.4 0.00 0.00 0.00 41 1010.1
20260504191534 25 294 17.7 33.8 0.00 0.00 0.00 42 1010.1
20260504190037 25 288 17.7 37.0 0.00 0.00 0.00 43 1010.3
20260504184537 24 294 19.3 40.2 0.00 0.00 0.00 44 1010.3
20260504183036 23 294 19.3 37.0 0.00 0.00 0.00 45 1010.4